Regional Weather Roundup
Issued by NWS Newport/Morehead, NC

Current Version | Previous Version | Text Only | Print | Product List | Glossary Off
Versions: 1 2 3 4 5 6 7 8 9 10 11 12 13 14 15 16 17 18 19 20 21 22 23 24 25 26 27 28 29 30 31 32 33 34 35 36 37 38 39 40 41 42 43 44 45 46 47 48 49 50
000 ASUS42 KMHX 261413 RWRMHX WEATHER ROUNDUP FOR EASTERN NORTH CAROLINA NATIONAL WEATHER SERVICE NEWPORT/MOREHEAD CITY NC 1000 AM EDT THU MAY 26 2016 NOTE: "FAIR" INDICATES FEW OR NO CLOUDS BELOW 12,000 FEET WITH NO SIGNIFICANT WEATHER AND/OR OBSTRUCTIONS TO VISIBILITY NCZ015>017-031-032-045>047-102-103-261500- NORTH COAST CITY SKY/WX TMP DP RH WIND PRES REMARKS EDENTON NOT AVBL ELIZABETH CITY SUNNY 77 66 68 S8 30.18F KITTY HAWK SUNNY 81 66 60 SW7 30.19F MANTEO NOT AVBL $$ NCZ045>047-081-094-103-104-261500- CENTRAL COAST CITY SKY/WX TMP DP RH WIND PRES REMARKS FRISCO SUNNY 75 66 73 SW6 30.23S $$ NCZ095-097-098-100-101-261500- SOUTHERN COAST CITY SKY/WX TMP DP RH WIND PRES REMARKS BEAUFORT SUNNY 78 68 71 SW12 30.22F CEDAR ISLAND NOT AVBL JACKSONVILLE SUNNY 79 64 60 SW12G17 30.21F PINEY ISLAND NOT AVBL WILMINGTON MOSUNNY 79 66 64 SW12 30.21F $$ NCZ011>013-027>030-043-044-078>080-089-090>093-098-261500- COASTAL PLAIN CITY SKY/WX TMP DP RH WIND PRES REMARKS AHOSKIE NOT AVBL CLINTON SUNNY 76 68 75 SW6 30.21F ELIZABETHTOWN PTSUNNY 77 65 67 SW8 30.22S GOLDSBORO SUNNY 79 67 68 SW9 30.18F GREENVILLE SUNNY 79 64 61 SW7 30.20F HAVELOCK SUNNY 80 68 66 SW9 30.22F KENANSVILLE SUNNY 77 65 64 SW5 30.22F KINSTON SUNNY 79 64 61 SW7 30.21F NEW BERN SUNNY 80 66 62 SW8 30.22F RICHLANDS MOSUNNY 78 69 73 S7 30.22F ROCKY MOUNT SUNNY 77 65 66 S8 30.18F WASHINGTON SUNNY 78 64 61 SW9 30.20S WHITEVILLE MOSUNNY 78 66 67 SW7 30.21F $$ AMZ130-135-150-152-154-156-158-170-250-252-270-ANZ085-086-088-633-658-670-261500- MARINE OBSERVATIONS STATION/POSITION TIME TEMP WIND PRES WAVE SWELL AIR SEA DIR/SP/G HT/PER HT/PER (UTC) (F) (DEG/KT/KT) (MB) (FT/S) (FT/S) CHESAPEAKE LIGHT 1400 69 210/ 12/ 13 1022.1 64 E VA BEACH 1350 63 58 220/ 8/ 10 1022.2 2/ 4 2/ 4 DUCK 1300 73 60 220/ 11/ 14 1022.0 2 E DUCK 1311 62 N/A 2/10 OREGON INLET 1300 72 72 190/ 11/ 12 1022.9 13E OREGON INLT 1400 65 N/A 2/ 8 2/ 8 HATTERAS CG 1300 74 70 220/ 7/ 9 1023.1 DIAMOND BUOY 1350 72 69 250/ 6/ 6 1023.7 2/ 8 2/ 8 CAPE LOOKOUT 1400 76 220/ 9/ 12 1023.1 BEAUFORT LAB 1300 77 71 230/ 3/ 9 1022.8 30 SE NEW RVR IN 1325 74 N/A 2/ 7 27 SE WRIGHTSVLE 1308 76 73 240/ 4/ 4 1024.0 5 SE WRIGHTSVLE NOT AVBL 225 S CAPE HAT 1350 75 78 50/ 12/ 14 1023.1 2/ 8 2/ 8 41 SE CHARLESTON 1350 77 76 170/ 4/ 6 1023.0 2/ 8 2/ 8 $$

USA.gov is the U.S. government's official web portal to all federal, state and local government web resources and services.